Time,TemperatureF,DewpointF,PressureIn,WindDirection,WindDirectionDegrees,WindSpeedMPH,WindSpeedGustMPH,Humidity,HourlyPrecipIn,Conditions,Clouds,dailyrainin,SoftwareType,DateUTC
2013-02-24 00:00:00,41.7,40.9,29.85,SSW,202,0.0,0.0,97,0.00,,,0.00,Wunderground v.1.15,2013-02-24 05:00:00,
2013-02-24 00:05:00,41.7,40.9,29.85,SSW,202,0.0,0.0,97,0.00,,,0.00,Wunderground v.1.15,2013-02-24 05:05:00,
2013-02-24 00:10:00,41.6,40.5,29.84,SSW,202,0.0,0.0,96,0.00,,,0.00,Wunderground v.1.15,2013-02-24 05:10:00,
2013-02-24 00:15:00,41.6,40.5,29.84,SSW,202,0.0,0.0,96,0.00,,,0.00,Wunderground v.1.15,2013-02-24 05:15:00,
2013-02-24 00:20:00,41.5,40.4,29.85,SSW,202,0.0,0.0,96,0.00,,,0.00,Wunderground v.1.15,2013-02-24 05:20:00,
2013-02-24 00:25:00,41.5,40.4,29.85,SSW,202,0.0,0.0,96,0.00,,,0.00,Wunderground v.1.15,2013-02-24 05:25:00,
2013-02-24 00:30:00,41.4,40.3,29.85,SSW,202,0.0,0.0,96,0.00,,,0.00,Wunderground v.1.15,2013-02-24 05:30:00,
2013-02-24 00:35:00,41.5,40.4,29.85,SSW,202,0.0,0.0,96,0.00,,,0.00,Wunderground v.1.15,2013-02-24 05:35:00,
2013-02-24 00:40:00,41.5,40.4,29.86,SSW,202,0.0,0.0,96,0.00,,,0.00,Wunderground v.1.15,2013-02-24 05:40:00,
2013-02-24 00:45:00,41.6,40.5,29.86,SSW,202,0.0,0.0,96,0.00,,,0.00,Wunderground v.1.15,2013-02-24 05:45:00,
2013-02-24 00:50:00,41.6,40.8,29.86,SSW,202,0.0,0.0,97,0.00,,,0.00,Wunderground v.1.15,2013-02-24 05:50:00,
2013-02-24 00:55:00,41.7,40.9,29.86,SSW,202,0.0,0.0,97,0.00,,,0.00,Wunderground v.1.15,2013-02-24 05:55:00,
2013-02-24 01:00:00,41.7,40.9,29.86,SSW,202,0.0,0.0,97,0.00,,,0.00,Wunderground v.1.15,2013-02-24 06:00:00,
2013-02-24 01:05:00,41.7,40.9,29.86,SSW,202,0.0,0.0,97,0.00,,,0.00,Wunderground v.1.15,2013-02-24 06:05:00,
2013-02-24 01:10:00,41.8,41.0,29.86,SSW,202,0.0,0.0,97,0.00,,,0.00,Wunderground v.1.15,2013-02-24 06:10:00,
2013-02-24 01:20:00,41.9,41.1,29.87,SSW,202,0.0,0.0,97,0.00,,,0.00,Wunderground v.1.15,2013-02-24 06:20:00,
2013-02-24 01:25:00,42.0,41.2,29.88,SSW,202,0.0,0.0,97,0.00,,,0.00,Wunderground v.1.15,2013-02-24 06:25:00,
2013-02-24 01:30:00,42.1,41.3,29.87,SE,143,0.0,0.0,97,0.00,,,0.00,Wunderground v.1.15,2013-02-24 06:30:00,
2013-02-24 01:35:00,42.1,41.3,29.87,SW,224,0.0,0.0,97,0.00,,,0.00,Wunderground v.1.15,2013-02-24 06:35:00,
2013-02-24 01:40:00,42.2,41.4,29.87,SW,224,0.0,0.0,97,0.00,,,0.00,Wunderground v.1.15,2013-02-24 06:40:00,
2013-02-24 01:45:00,42.2,41.4,29.87,SW,224,0.0,0.0,97,0.00,,,0.00,Wunderground v.1.15,2013-02-24 06:45:00,
2013-02-24 01:50:00,42.3,41.5,29.86,SSW,211,0.0,0.0,97,0.00,,,0.00,Wunderground v.1.15,2013-02-24 06:50:00,
2013-02-24 01:55:00,42.4,41.6,29.86,SSE,156,0.0,0.0,97,0.00,,,0.00,Wunderground v.1.15,2013-02-24 06:55:00,
2013-02-24 02:00:00,42.4,41.6,29.85,SSE,156,0.0,0.0,97,0.00,,,0.00,Wunderground v.1.15,2013-02-24 07:00:00,
2013-02-24 02:05:00,42.4,41.6,29.85,SSE,156,0.0,0.0,97,0.00,,,0.00,Wunderground v.1.15,2013-02-24 07:05:00,
2013-02-24 02:10:00,42.5,41.7,29.85,SW,229,0.0,0.0,97,0.00,,,0.00,Wunderground v.1.15,2013-02-24 07:10:00,
2013-02-24 02:15:00,42.5,41.7,29.85,SW,229,0.0,0.0,97,0.00,,,0.00,Wunderground v.1.15,2013-02-24 07:15:00,
2013-02-24 02:20:00,42.6,41.8,29.85,SW,229,0.0,0.0,97,0.00,,,0.00,Wunderground v.1.15,2013-02-24 07:20:00,
2013-02-24 02:25:00,42.6,41.8,29.85,SW,229,0.0,0.0,97,0.00,,,0.00,Wunderground v.1.15,2013-02-24 07:25:00,
2013-02-24 02:30:00,42.6,41.8,29.85,SW,229,0.0,0.0,97,0.00,,,0.00,Wunderground v.1.15,2013-02-24 07:30:00,
2013-02-24 02:35:00,42.6,41.8,29.83,SW,229,0.0,0.0,97,0.00,,,0.00,Wunderground v.1.15,2013-02-24 07:35:00,
2013-02-24 02:40:00,42.6,41.8,29.85,SW,229,0.0,0.0,97,0.00,,,0.00,Wunderground v.1.15,2013-02-24 07:40:00,
2013-02-24 02:50:00,42.6,41.8,29.85,SW,228,0.0,0.0,97,0.00,,,0.00,Wunderground v.1.15,2013-02-24 07:50:00,
2013-02-24 03:00:00,42.8,42.0,29.84,West,265,0.0,0.0,97,0.00,,,0.00,Wunderground v.1.15,2013-02-24 08:00:00,
2013-02-24 03:05:00,42.8,42.0,29.85,West,259,0.0,0.0,97,0.00,,,0.00,Wunderground v.1.15,2013-02-24 08:05:00,
2013-02-24 03:10:00,42.9,42.1,29.85,SSW,198,0.0,0.0,97,0.00,,,0.00,Wunderground v.1.15,2013-02-24 08:10:00,
2013-02-24 03:15:00,42.9,42.1,29.85,SSW,194,0.0,4.0,97,0.00,,,0.00,Wunderground v.1.15,2013-02-24 08:15:00,
2013-02-24 03:20:00,43.0,42.2,29.85,SW,232,0.0,0.0,97,0.00,,,0.00,Wunderground v.1.15,2013-02-24 08:20:00,
2013-02-24 03:25:00,43.0,42.2,29.85,SW,232,0.0,0.0,97,0.00,,,0.00,Wunderground v.1.15,2013-02-24 08:25:00,
2013-02-24 03:30:00,43.1,42.3,29.85,SSE,148,0.0,0.0,97,0.00,,,0.00,Wunderground v.1.15,2013-02-24 08:30:00,
2013-02-24 03:40:00,43.1,42.3,29.84,SSE,148,0.0,0.0,97,0.00,,,0.00,Wunderground v.1.15,2013-02-24 08:40:00,
2013-02-24 03:45:00,43.1,42.3,29.83,SSE,148,0.0,0.0,97,0.00,,,0.00,Wunderground v.1.15,2013-02-24 08:45:00,
2013-02-24 03:50:00,43.1,42.3,29.83,SSE,148,0.0,0.0,97,0.00,,,0.00,Wunderground v.1.15,2013-02-24 08:50:00,
2013-02-24 03:55:00,43.0,42.2,29.83,SSE,148,0.0,0.0,97,0.00,,,0.00,Wunderground v.1.15,2013-02-24 08:55:00,
2013-02-24 04:00:00,43.0,42.2,29.83,SE,128,0.0,0.0,97,0.00,,,0.00,Wunderground v.1.15,2013-02-24 09:00:00,
2013-02-24 04:05:00,42.9,42.1,29.82,SE,128,0.0,0.0,97,0.00,,,0.00,Wunderground v.1.15,2013-02-24 09:05:00,
2013-02-24 04:10:00,42.7,41.9,29.83,SE,128,0.0,0.0,97,0.00,,,0.00,Wunderground v.1.15,2013-02-24 09:10:00,
2013-02-24 04:15:00,42.6,41.8,29.83,SE,128,0.0,0.0,97,0.00,,,0.00,Wunderground v.1.15,2013-02-24 09:15:00,
2013-02-24 04:20:00,42.4,41.6,29.83,West,262,0.0,0.0,97,0.00,,,0.00,Wunderground v.1.15,2013-02-24 09:20:00,
2013-02-24 04:25:00,42.3,41.5,29.83,West,262,0.0,0.0,97,0.00,,,0.00,Wunderground v.1.15,2013-02-24 09:25:00,
2013-02-24 04:30:00,42.2,41.4,29.83,West,262,0.0,0.0,97,0.00,,,0.00,Wunderground v.1.15,2013-02-24 09:30:00,
2013-02-24 04:35:00,42.1,41.0,29.83,SW,228,0.0,0.0,96,0.00,,,0.00,Wunderground v.1.15,2013-02-24 09:35:00,
2013-02-24 04:40:00,42.0,41.2,29.83,SW,228,0.0,0.0,97,0.00,,,0.00,Wunderground v.1.15,2013-02-24 09:40:00,
2013-02-24 04:45:00,41.9,41.1,29.84,SW,229,0.0,0.0,97,0.00,,,0.00,Wunderground v.1.15,2013-02-24 09:45:00,
2013-02-24 04:50:00,41.8,41.0,29.83,SW,229,0.0,0.0,97,0.00,,,0.00,Wunderground v.1.15,2013-02-24 09:50:00,
2013-02-24 04:55:00,41.7,40.9,29.83,SW,229,0.0,0.0,97,0.00,,,0.00,Wunderground v.1.15,2013-02-24 09:55:00,
2013-02-24 05:00:00,41.6,40.5,29.84,SW,229,0.0,0.0,96,0.00,,,0.00,Wunderground v.1.15,2013-02-24 10:00:00,
2013-02-24 05:05:00,41.5,40.4,29.84,SW,229,0.0,0.0,96,0.00,,,0.00,Wunderground v.1.15,2013-02-24 10:05:00,
2013-02-24 05:10:00,41.2,40.1,29.85,SW,229,0.0,0.0,96,0.00,,,0.00,Wunderground v.1.15,2013-02-24 10:10:00,
2013-02-24 05:15:00,40.8,39.7,29.85,SW,221,0.0,0.0,96,0.00,,,0.00,Wunderground v.1.15,2013-02-24 10:15:00,
2013-02-24 05:20:00,40.8,39.7,29.85,South,180,0.0,1.0,96,0.00,,,0.00,Wunderground v.1.15,2013-02-24 10:20:00,
2013-02-24 05:25:00,40.8,39.7,29.85,South,178,0.0,1.0,96,0.00,,,0.00,Wunderground v.1.15,2013-02-24 10:25:00,
2013-02-24 05:30:00,41.0,40.2,29.86,WSW,253,0.0,0.0,97,0.00,,,0.00,Wunderground v.1.15,2013-02-24 10:30:00,
2013-02-24 05:35:00,41.1,40.3,29.86,South,179,0.0,0.0,97,0.00,,,0.00,Wunderground v.1.15,2013-02-24 10:35:00,
2013-02-24 05:40:00,41.3,40.5,29.86,WSW,238,0.0,0.0,97,0.00,,,0.00,Wunderground v.1.15,2013-02-24 10:40:00,
2013-02-24 05:50:00,41.4,40.6,29.86,East,81,0.0,0.0,97,0.00,,,0.00,Wunderground v.1.15,2013-02-24 10:50:00,
2013-02-24 05:55:00,41.4,40.6,29.87,East,81,0.0,0.0,97,0.00,,,0.00,Wunderground v.1.15,2013-02-24 10:55:00,
2013-02-24 06:00:00,41.2,40.4,29.87,East,81,0.0,0.0,97,0.00,,,0.00,Wunderground v.1.15,2013-02-24 11:00:00,
2013-02-24 06:10:00,41.1,40.3,29.88,East,81,0.0,0.0,97,0.00,,,0.00,Wunderground v.1.15,2013-02-24 11:10:00,
2013-02-24 06:20:00,41.0,40.2,29.88,East,81,0.0,0.0,97,0.00,,,0.00,Wunderground v.1.15,2013-02-24 11:20:00,
2013-02-24 06:30:00,40.8,40.0,29.88,East,81,0.0,0.0,97,0.00,,,0.00,Wunderground v.1.15,2013-02-24 11:30:00,
2013-02-24 06:40:00,40.7,39.9,29.88,East,81,0.0,0.0,97,0.00,,,0.00,Wunderground v.1.15,2013-02-24 11:40:00,
2013-02-24 06:45:00,40.6,39.8,29.88,East,81,0.0,0.0,97,0.00,,,0.00,Wunderground v.1.15,2013-02-24 11:45:00,
2013-02-24 06:50:00,40.5,39.7,29.88,East,81,0.0,0.0,97,0.00,,,0.00,Wunderground v.1.15,2013-02-24 11:50:00,
2013-02-24 06:55:00,40.5,39.7,29.89,East,81,0.0,0.0,97,0.00,,,0.00,Wunderground v.1.15,2013-02-24 11:55:00,
2013-02-24 07:00:00,40.5,39.7,29.89,East,81,0.0,0.0,97,0.00,,,0.00,Wunderground v.1.15,2013-02-24 12:00:00,
2013-02-24 07:05:00,40.5,39.7,29.89,East,81,0.0,0.0,97,0.00,,,0.00,Wunderground v.1.15,2013-02-24 12:05:00,
2013-02-24 07:10:00,40.3,39.5,29.90,East,81,0.0,0.0,97,0.00,,,0.00,Wunderground v.1.15,2013-02-24 12:10:00,
2013-02-24 07:20:00,40.1,39.3,29.90,East,81,0.0,0.0,97,0.00,,,0.00,Wunderground v.1.15,2013-02-24 12:20:00,
2013-02-24 07:25:00,40.0,39.2,29.90,East,81,0.0,0.0,97,0.00,,,0.00,Wunderground v.1.15,2013-02-24 12:25:00,
2013-02-24 07:30:00,40.0,39.2,29.91,East,81,0.0,0.0,97,0.00,,,0.00,Wunderground v.1.15,2013-02-24 12:30:00,
2013-02-24 07:35:00,40.0,39.2,29.91,East,81,0.0,0.0,97,0.00,,,0.00,Wunderground v.1.15,2013-02-24 12:35:00,
2013-02-24 07:40:00,40.0,39.2,29.91,East,81,0.0,0.0,97,0.00,,,0.00,Wunderground v.1.15,2013-02-24 12:40:00,
2013-02-24 07:50:00,40.1,39.3,29.92,East,81,0.0,0.0,97,0.00,,,0.00,Wunderground v.1.15,2013-02-24 12:50:00,
2013-02-24 08:00:00,40.7,39.9,29.92,SSE,149,0.0,0.0,97,0.00,,,0.00,Wunderground v.1.15,2013-02-24 13:00:00,
2013-02-24 08:10:00,41.5,40.7,29.92,SSE,149,0.0,0.0,97,0.00,,,0.00,Wunderground v.1.15,2013-02-24 13:10:00,
2013-02-24 08:15:00,41.8,41.0,29.93,SSE,149,0.0,0.0,97,0.00,,,0.00,Wunderground v.1.15,2013-02-24 13:15:00,
2013-02-24 08:20:00,42.2,41.7,29.93,SSE,147,0.0,0.0,98,0.00,,,0.00,Wunderground v.1.15,2013-02-24 13:20:00,
2013-02-24 08:25:00,42.5,41.7,29.93,SE,141,0.0,0.0,97,0.00,,,0.00,Wunderground v.1.15,2013-02-24 13:25:00,
2013-02-24 08:30:00,42.8,42.3,29.94,SE,141,0.0,0.0,98,0.00,,,0.00,Wunderground v.1.15,2013-02-24 13:30:00,
2013-02-24 08:35:00,43.1,42.3,29.94,SE,141,0.0,0.0,97,0.00,,,0.00,Wunderground v.1.15,2013-02-24 13:35:00,
2013-02-24 08:40:00,43.4,42.9,29.95,SE,141,0.0,0.0,98,0.00,,,0.00,Wunderground v.1.15,2013-02-24 13:40:00,
2013-02-24 08:45:00,43.7,43.2,29.95,SE,141,0.0,0.0,98,0.00,,,0.00,Wunderground v.1.15,2013-02-24 13:45:00,
2013-02-24 08:50:00,44.0,43.5,29.95,SW,219,0.0,1.0,98,0.00,,,0.00,Wunderground v.1.15,2013-02-24 13:50:00,
2013-02-24 08:55:00,44.3,43.8,29.95,NW,319,0.0,4.0,98,0.00,,,0.00,Wunderground v.1.15,2013-02-24 13:55:00,
2013-02-24 09:00:00,44.7,44.2,29.96,WSW,248,1.0,3.0,98,0.00,,,0.00,Wunderground v.1.15,2013-02-24 14:00:00,
2013-02-24 09:10:00,45.9,44.3,29.96,West,271,1.0,1.0,94,0.00,,,0.00,Wunderground v.1.15,2013-02-24 14:10:00,
2013-02-24 09:15:00,46.3,43.5,29.96,WNW,300,0.0,1.0,90,0.00,,,0.00,Wunderground v.1.15,2013-02-24 14:15:00,
2013-02-24 09:20:00,46.8,42.8,29.95,West,269,1.0,3.0,86,0.00,,,0.00,Wunderground v.1.15,2013-02-24 14:20:00,
2013-02-24 09:30:00,47.9,42.3,29.96,WNW,286,1.0,1.0,81,0.00,,,0.00,Wunderground v.1.15,2013-02-24 14:30:00,
2013-02-24 09:35:00,48.2,42.3,29.95,WNW,302,2.0,4.0,80,0.00,,,0.00,Wunderground v.1.15,2013-02-24 14:35:00,
2013-02-24 09:40:00,48.6,41.0,29.95,NW,306,2.0,2.0,75,0.00,,,0.00,Wunderground v.1.15,2013-02-24 14:40:00,
2013-02-24 09:45:00,49.0,41.8,29.95,WNW,296,2.0,2.0,76,0.00,,,0.00,Wunderground v.1.15,2013-02-24 14:45:00,
2013-02-24 09:50:00,49.4,42.5,29.95,WNW,291,2.0,3.0,77,0.00,,,0.00,Wunderground v.1.15,2013-02-24 14:50:00,
2013-02-24 10:00:00,49.9,41.6,29.96,West,275,1.0,3.0,73,0.00,,,0.00,Wunderground v.1.15,2013-02-24 15:00:00,
2013-02-24 10:05:00,50.2,40.4,29.96,WNW,285,2.0,3.0,69,0.00,,,0.00,Wunderground v.1.15,2013-02-24 15:05:00,
2013-02-24 10:10:00,50.5,41.1,29.96,SSW,211,1.0,2.0,70,0.00,,,0.00,Wunderground v.1.15,2013-02-24 15:10:00,
2013-02-24 10:20:00,51.0,40.8,29.95,West,280,2.0,2.0,68,0.00,,,0.00,Wunderground v.1.15,2013-02-24 15:20:00,
2013-02-24 10:30:00,51.5,38.9,29.96,WSW,254,2.0,2.0,62,0.00,,,0.00,Wunderground v.1.15,2013-02-24 15:30:00,
2013-02-24 10:35:00,51.7,40.3,29.96,West,270,2.0,4.0,65,0.00,,,0.00,Wunderground v.1.15,2013-02-24 15:35:00,
2013-02-24 10:40:00,51.8,37.5,29.96,SW,219,2.0,4.0,58,0.00,,,0.00,Wunderground v.1.15,2013-02-24 15:40:00,
2013-02-24 10:45:00,52.1,38.6,29.97,WNW,289,3.0,4.0,60,0.00,,,0.00,Wunderground v.1.15,2013-02-24 15:45:00,
2013-02-24 10:50:00,52.6,39.9,29.97,WNW,288,2.0,4.0,62,0.00,,,0.00,Wunderground v.1.15,2013-02-24 15:50:00,
2013-02-24 10:55:00,52.6,37.8,29.97,West,261,2.0,4.0,57,0.00,,,0.00,Wunderground v.1.15,2013-02-24 15:55:00,
2013-02-24 11:00:00,52.7,37.0,29.97,WSW,253,3.0,3.0,55,0.00,,,0.00,Wunderground v.1.15,2013-02-24 16:00:00,
2013-02-24 11:05:00,52.7,37.0,29.97,West,278,3.0,4.0,55,0.00,,,0.00,Wunderground v.1.15,2013-02-24 16:05:00,
2013-02-24 11:10:00,52.8,38.0,29.97,WSW,256,3.0,3.0,57,0.00,,,0.00,Wunderground v.1.15,2013-02-24 16:10:00,
2013-02-24 11:15:00,53.1,36.9,29.97,WNW,294,4.0,4.0,54,0.00,,,0.00,Wunderground v.1.15,2013-02-24 16:15:00,
2013-02-24 11:20:00,53.5,38.2,29.97,WSW,244,3.0,4.0,56,0.00,,,0.00,Wunderground v.1.15,2013-02-24 16:20:00,
2013-02-24 11:30:00,53.9,36.2,29.96,SW,228,2.0,2.0,51,0.00,,,0.00,Wunderground v.1.15,2013-02-24 16:30:00,
2013-02-24 11:35:00,54.1,37.3,29.96,WNW,296,2.0,3.0,53,0.00,,,0.00,Wunderground v.1.15,2013-02-24 16:35:00,
2013-02-24 11:40:00,54.2,36.5,29.96,NW,319,2.0,2.0,51,0.00,,,0.00,Wunderground v.1.15,2013-02-24 16:40:00,
2013-02-24 11:45:00,54.6,36.3,29.96,West,281,2.0,2.0,50,0.00,,,0.00,Wunderground v.1.15,2013-02-24 16:45:00,
2013-02-24 11:50:00,55.0,36.7,29.96,WSW,237,1.0,1.0,50,0.00,,,0.00,Wunderground v.1.15,2013-02-24 16:50:00,
2013-02-24 12:00:00,55.4,35.5,29.95,WNW,294,2.0,2.0,47,0.00,,,0.00,Wunderground v.1.15,2013-02-24 17:00:00,
2013-02-24 12:05:00,55.3,36.5,29.95,WNW,298,3.0,3.0,49,0.00,,,0.00,Wunderground v.1.15,2013-02-24 17:05:00,
2013-02-24 12:10:00,55.3,35.9,29.95,WSW,252,2.0,2.0,48,0.00,,,0.00,Wunderground v.1.15,2013-02-24 17:10:00,
2013-02-24 12:15:00,55.5,35.0,29.95,SSE,162,2.0,4.0,46,0.00,,,0.00,Wunderground v.1.15,2013-02-24 17:15:00,
2013-02-24 12:20:00,55.9,37.0,29.95,West,275,2.0,4.0,49,0.00,,,0.00,Wunderground v.1.15,2013-02-24 17:20:00,
2013-02-24 12:25:00,56.3,35.8,29.95,West,281,2.0,4.0,46,0.00,,,0.00,Wunderground v.1.15,2013-02-24 17:25:00,
2013-02-24 12:30:00,56.3,35.2,29.95,West,270,2.0,2.0,45,0.00,,,0.00,Wunderground v.1.15,2013-02-24 17:30:00,
2013-02-24 12:35:00,56.5,34.8,29.94,SW,225,2.0,2.0,44,0.00,,,0.00,Wunderground v.1.15,2013-02-24 17:35:00,
2013-02-24 12:40:00,56.9,35.2,29.94,SW,234,2.0,2.0,44,0.00,,,0.00,Wunderground v.1.15,2013-02-24 17:40:00,
2013-02-24 12:45:00,57.1,34.8,29.94,West,261,1.0,3.0,43,0.00,,,0.00,Wunderground v.1.15,2013-02-24 17:45:00,
2013-02-24 12:50:00,57.2,34.3,29.94,WNW,301,2.0,2.0,42,0.00,,,0.00,Wunderground v.1.15,2013-02-24 17:50:00,
2013-02-24 13:00:00,57.1,35.4,29.94,WNW,291,2.0,3.0,44,0.00,,,0.00,Wunderground v.1.15,2013-02-24 18:00:00,
2013-02-24 13:05:00,57.0,34.7,29.94,WNW,294,2.0,3.0,43,0.00,,,0.00,Wunderground v.1.15,2013-02-24 18:05:00,
2013-02-24 13:10:00,57.2,36.0,29.93,WNW,285,1.0,1.0,45,0.00,,,0.00,Wunderground v.1.15,2013-02-24 18:10:00,
2013-02-24 13:20:00,58.4,36.6,29.93,WNW,296,1.0,1.0,44,0.00,,,0.00,Wunderground v.1.15,2013-02-24 18:20:00,
2013-02-24 13:30:00,59.1,36.6,29.92,WNW,303,1.0,1.0,43,0.00,,,0.00,Wunderground v.1.15,2013-02-24 18:30:00,
2013-02-24 13:35:00,58.7,36.8,29.92,WNW,300,1.0,1.0,44,0.00,,,0.00,Wunderground v.1.15,2013-02-24 18:35:00,
2013-02-24 13:40:00,58.5,36.6,29.92,South,185,1.0,2.0,44,0.00,,,0.00,Wunderground v.1.15,2013-02-24 18:40:00,
2013-02-24 13:50:00,59.7,37.2,29.92,WSW,252,1.0,3.0,43,0.00,,,0.00,Wunderground v.1.15,2013-02-24 18:50:00,
2013-02-24 13:55:00,59.5,37.0,29.92,WSW,239,1.0,3.0,43,0.00,,,0.00,Wunderground v.1.15,2013-02-24 18:55:00,
2013-02-24 14:00:00,59.6,35.9,29.92,SW,234,1.0,1.0,41,0.00,,,0.00,Wunderground v.1.15,2013-02-24 19:00:00,
2013-02-24 14:05:00,59.5,37.0,29.91,WNW,294,1.0,1.0,43,0.00,,,0.00,Wunderground v.1.15,2013-02-24 19:05:00,
2013-02-24 14:10:00,59.3,36.8,29.91,NW,304,1.0,1.0,43,0.00,,,0.00,Wunderground v.1.15,2013-02-24 19:10:00,
2013-02-24 14:15:00,59.5,35.1,29.91,ESE,120,1.0,1.0,40,0.00,,,0.00,Wunderground v.1.15,2013-02-24 19:15:00,
2013-02-24 14:20:00,59.8,34.8,29.91,South,191,1.0,1.0,39,0.00,,,0.00,Wunderground v.1.15,2013-02-24 19:20:00,
2013-02-24 14:30:00,60.2,35.8,29.91,NE,49,0.0,0.0,40,0.00,,,0.00,Wunderground v.1.15,2013-02-24 19:30:00,
2013-02-24 14:35:00,60.4,34.7,29.91,WSW,246,0.0,0.0,38,0.00,,,0.00,Wunderground v.1.15,2013-02-24 19:35:00,
2013-02-24 14:40:00,60.5,36.0,29.91,SSW,197,1.0,5.0,40,0.00,,,0.00,Wunderground v.1.15,2013-02-24 19:40:00,
2013-02-24 14:45:00,60.6,34.8,29.91,WSW,257,2.0,5.0,38,0.00,,,0.00,Wunderground v.1.15,2013-02-24 19:45:00,
2013-02-24 14:50:00,60.3,34.6,29.91,NW,304,2.0,3.0,38,0.00,,,0.00,Wunderground v.1.15,2013-02-24 19:50:00,
2013-02-24 14:55:00,60.1,35.7,29.91,WNW,294,2.0,3.0,40,0.00,,,0.00,Wunderground v.1.15,2013-02-24 19:55:00,
2013-02-24 15:00:00,60.0,35.6,29.91,SSE,161,2.0,2.0,40,0.00,,,0.00,Wunderground v.1.15,2013-02-24 20:00:00,
2013-02-24 15:10:00,60.6,36.8,29.91,SSW,200,1.0,1.0,41,0.00,,,0.00,Wunderground v.1.15,2013-02-24 20:10:00,
2013-02-24 15:15:00,60.6,36.1,29.91,WNW,286,1.0,1.0,40,0.00,,,0.00,Wunderground v.1.15,2013-02-24 20:15:00,
2013-02-24 15:20:00,60.7,35.6,29.91,SW,223,2.0,2.0,39,0.00,,,0.00,Wunderground v.1.15,2013-02-24 20:20:00,
2013-02-24 15:25:00,60.9,35.1,29.91,South,175,2.0,6.0,38,0.00,,,0.00,Wunderground v.1.15,2013-02-24 20:25:00,
2013-02-24 15:30:00,61.2,36.0,29.91,SW,219,1.0,1.0,39,0.00,,,0.00,Wunderground v.1.15,2013-02-24 20:30:00,
2013-02-24 15:40:00,61.1,35.3,29.91,WSW,258,1.0,1.0,38,0.00,,,0.00,Wunderground v.1.15,2013-02-24 20:40:00,
2013-02-24 15:50:00,61.1,35.3,29.91,WNW,283,1.0,5.0,38,0.00,,,0.00,Wunderground v.1.15,2013-02-24 20:50:00,
2013-02-24 15:55:00,60.7,32.1,29.91,WSW,252,2.0,5.0,34,0.00,,,0.00,Wunderground v.1.15,2013-02-24 20:55:00,
2013-02-24 16:00:00,60.4,32.6,29.91,SSE,161,2.0,2.0,35,0.00,,,0.00,Wunderground v.1.15,2013-02-24 21:00:00,
2013-02-24 16:10:00,60.0,30.0,29.92,South,181,3.0,3.0,32,0.00,,,0.00,Wunderground v.1.15,2013-02-24 21:10:00,
2013-02-24 16:25:00,59.2,29.3,29.92,WSW,257,1.0,5.0,32,0.00,,,0.00,Wunderground v.1.15,2013-02-24 21:25:00,
2013-02-24 16:30:00,59.1,28.5,29.92,WNW,290,2.0,4.0,31,0.00,,,0.00,Wunderground v.1.15,2013-02-24 21:30:00,
2013-02-24 16:40:00,58.8,27.4,29.93,SW,236,3.0,3.0,30,0.00,,,0.00,Wunderground v.1.15,2013-02-24 21:40:00,
2013-02-24 16:50:00,58.6,29.6,29.93,SSE,152,1.0,1.0,33,0.00,,,0.00,Wunderground v.1.15,2013-02-24 21:50:00,
2013-02-24 17:00:00,58.2,28.5,29.93,SSW,205,1.0,1.0,32,0.00,,,0.00,Wunderground v.1.15,2013-02-24 22:00:00,
2013-02-24 17:05:00,58.2,28.5,29.93,West,265,1.0,1.0,32,0.00,,,0.00,Wunderground v.1.15,2013-02-24 22:05:00,
2013-02-24 17:10:00,58.0,29.0,29.93,SSW,204,1.0,1.0,33,0.00,,,0.00,Wunderground v.1.15,2013-02-24 22:10:00,
2013-02-24 17:15:00,57.9,28.9,29.93,West,262,0.0,1.0,33,0.00,,,0.00,Wunderground v.1.15,2013-02-24 22:15:00,
2013-02-24 17:20:00,57.6,29.4,29.94,SW,224,1.0,1.0,34,0.00,,,0.00,Wunderground v.1.15,2013-02-24 22:20:00,
2013-02-24 17:25:00,57.4,29.2,29.94,West,264,1.0,1.0,34,0.00,,,0.00,Wunderground v.1.15,2013-02-24 22:25:00,
2013-02-24 17:30:00,57.2,29.8,29.94,West,267,0.0,0.0,35,0.00,,,0.00,Wunderground v.1.15,2013-02-24 22:30:00,
2013-02-24 17:35:00,57.0,28.9,29.94,SW,216,0.0,0.0,34,0.00,,,0.00,Wunderground v.1.15,2013-02-24 22:35:00,
2013-02-24 17:40:00,56.8,29.4,29.94,SW,220,0.0,0.0,35,0.00,,,0.00,Wunderground v.1.15,2013-02-24 22:40:00,
2013-02-24 17:45:00,56.5,29.1,29.94,SW,220,0.0,0.0,35,0.00,,,0.00,Wunderground v.1.15,2013-02-24 22:45:00,
2013-02-24 17:50:00,56.2,29.6,29.94,SW,220,0.0,0.0,36,0.00,,,0.00,Wunderground v.1.15,2013-02-24 22:50:00,
2013-02-24 17:55:00,55.9,28.6,29.95,SW,220,0.0,0.0,35,0.00,,,0.00,Wunderground v.1.15,2013-02-24 22:55:00,
2013-02-24 18:00:00,55.7,29.1,29.95,SW,219,0.0,0.0,36,0.00,,,0.00,Wunderground v.1.15,2013-02-24 23:00:00,
2013-02-24 18:05:00,55.3,30.1,29.95,SW,220,0.0,0.0,38,0.00,,,0.00,Wunderground v.1.15,2013-02-24 23:05:00,
2013-02-24 18:10:00,54.9,29.1,29.95,SW,220,0.0,0.0,37,0.00,,,0.00,Wunderground v.1.15,2013-02-24 23:10:00,
2013-02-24 18:15:00,54.6,29.5,29.95,SW,220,0.0,0.0,38,0.00,,,0.00,Wunderground v.1.15,2013-02-24 23:15:00,
2013-02-24 18:20:00,54.2,29.1,29.95,SW,219,0.0,0.0,38,0.00,,,0.00,Wunderground v.1.15,2013-02-24 23:20:00,
2013-02-24 18:25:00,53.9,28.8,29.95,SW,219,0.0,0.0,38,0.00,,,0.00,Wunderground v.1.15,2013-02-24 23:25:00,
2013-02-24 18:30:00,53.4,29.0,29.96,SW,219,0.0,0.0,39,0.00,,,0.00,Wunderground v.1.15,2013-02-24 23:30:00,
2013-02-24 18:40:00,52.4,29.4,29.96,SW,219,0.0,0.0,41,0.00,,,0.00,Wunderground v.1.15,2013-02-24 23:40:00,
2013-02-24 18:45:00,52.0,29.0,29.96,SW,219,0.0,0.0,41,0.00,,,0.00,Wunderground v.1.15,2013-02-24 23:45:00,
2013-02-24 18:50:00,51.5,29.7,29.97,SW,219,0.0,0.0,43,0.00,,,0.00,Wunderground v.1.15,2013-02-24 23:50:00,
2013-02-24 18:55:00,51.0,29.8,29.97,SW,220,0.0,0.0,44,0.00,,,0.00,Wunderground v.1.15,2013-02-24 23:55:00,
2013-02-24 19:00:00,50.6,30.6,29.97,SW,220,0.0,0.0,46,0.00,,,0.00,Wunderground v.1.15,2013-02-25 00:00:00,
2013-02-24 19:10:00,49.6,31.2,29.98,SW,219,0.0,0.0,49,0.00,,,0.00,Wunderground v.1.15,2013-02-25 00:10:00,
2013-02-24 19:15:00,49.2,34.2,29.98,SW,220,0.0,0.0,56,0.00,,,0.00,Wunderground v.1.15,2013-02-25 00:15:00,
2013-02-24 19:20:00,48.5,32.6,29.99,SW,219,0.0,0.0,54,0.00,,,0.00,Wunderground v.1.15,2013-02-25 00:20:00,
2013-02-24 19:25:00,48.0,31.2,29.99,SW,219,0.0,0.0,52,0.00,,,0.00,Wunderground v.1.15,2013-02-25 00:25:00,
2013-02-24 19:30:00,47.6,31.3,29.99,SW,219,0.0,0.0,53,0.00,,,0.00,Wunderground v.1.15,2013-02-25 00:30:00,
2013-02-24 19:35:00,47.5,29.8,29.99,SW,219,0.0,0.0,50,0.00,,,0.00,Wunderground v.1.15,2013-02-25 00:35:00,
2013-02-24 19:40:00,47.5,28.8,30.00,SW,219,0.0,0.0,48,0.00,,,0.00,Wunderground v.1.15,2013-02-25 00:40:00,
2013-02-24 19:45:00,47.7,28.4,30.00,SW,219,0.0,0.0,47,0.00,,,0.00,Wunderground v.1.15,2013-02-25 00:45:00,
2013-02-24 19:50:00,47.9,28.1,30.01,SW,220,0.0,0.0,46,0.00,,,0.00,Wunderground v.1.15,2013-02-25 00:50:00,
2013-02-24 20:00:00,48.0,30.7,30.01,SW,220,0.0,0.0,51,0.00,,,0.00,Wunderground v.1.15,2013-02-25 01:00:00,
2013-02-24 20:05:00,47.7,30.9,30.01,SW,220,0.0,0.0,52,0.00,,,0.00,Wunderground v.1.15,2013-02-25 01:05:00,
2013-02-24 20:10:00,47.3,29.6,30.01,SW,220,0.0,0.0,50,0.00,,,0.00,Wunderground v.1.15,2013-02-25 01:10:00,
2013-02-24 20:15:00,47.0,31.2,30.01,SW,219,0.0,0.0,54,0.00,,,0.00,Wunderground v.1.15,2013-02-25 01:15:00,
2013-02-24 20:20:00,46.7,29.0,30.01,SSW,203,0.0,0.0,50,0.00,,,0.00,Wunderground v.1.15,2013-02-25 01:20:00,
2013-02-24 20:30:00,46.9,28.7,30.02,SSW,203,0.0,0.0,49,0.00,,,0.00,Wunderground v.1.15,2013-02-25 01:30:00,
2013-02-24 20:35:00,47.0,26.7,30.02,North,351,0.0,0.0,45,0.00,,,0.00,Wunderground v.1.15,2013-02-25 01:35:00,
2013-02-24 20:40:00,47.2,27.5,30.02,North,351,0.0,0.0,46,0.00,,,0.00,Wunderground v.1.15,2013-02-25 01:40:00,
2013-02-24 20:45:00,47.2,26.9,30.03,North,351,0.0,0.0,45,0.00,,,0.00,Wunderground v.1.15,2013-02-25 01:45:00,
2013-02-24 20:50:00,47.1,28.4,30.03,North,351,0.0,0.0,48,0.00,,,0.00,Wunderground v.1.15,2013-02-25 01:50:00,
2013-02-24 20:55:00,46.9,29.7,30.03,North,351,0.0,0.0,51,0.00,,,0.00,Wunderground v.1.15,2013-02-25 01:55:00,
2013-02-24 21:00:00,46.6,29.4,30.03,North,351,0.0,0.0,51,0.00,,,0.00,Wunderground v.1.15,2013-02-25 02:00:00,
2013-02-24 21:05:00,46.4,27.2,30.03,North,351,0.0,0.0,47,0.00,,,0.00,Wunderground v.1.15,2013-02-25 02:05:00,
2013-02-24 21:10:00,46.4,26.2,30.04,North,351,0.0,0.0,45,0.00,,,0.00,Wunderground v.1.15,2013-02-25 02:10:00,
2013-02-24 21:15:00,46.4,26.7,30.04,North,351,0.0,0.0,46,0.00,,,0.00,Wunderground v.1.15,2013-02-25 02:15:00,
2013-02-24 21:20:00,46.2,26.0,30.04,North,351,0.0,0.0,45,0.00,,,0.00,Wunderground v.1.15,2013-02-25 02:20:00,
2013-02-24 21:25:00,45.9,26.8,30.04,North,351,0.0,0.0,47,0.00,,,0.00,Wunderground v.1.15,2013-02-25 02:25:00,
2013-02-24 21:30:00,45.4,26.3,30.04,North,351,0.0,0.0,47,0.00,,,0.00,Wunderground v.1.15,2013-02-25 02:30:00,
2013-02-24 21:35:00,45.2,26.7,30.04,North,351,0.0,0.0,48,0.00,,,0.00,Wunderground v.1.15,2013-02-25 02:35:00,
2013-02-24 21:40:00,44.9,27.4,30.04,North,351,0.0,0.0,50,0.00,,,0.00,Wunderground v.1.15,2013-02-25 02:40:00,
2013-02-24 21:45:00,44.5,27.5,30.04,North,9,0.0,0.0,51,0.00,,,0.00,Wunderground v.1.15,2013-02-25 02:45:00,
2013-02-24 21:50:00,44.4,27.4,30.04,NE,37,0.0,0.0,51,0.00,,,0.00,Wunderground v.1.15,2013-02-25 02:50:00,
2013-02-24 21:55:00,44.5,27.0,30.05,West,280,0.0,0.0,50,0.00,,,0.00,Wunderground v.1.15,2013-02-25 02:55:00,
2013-02-24 22:00:00,44.8,25.8,30.04,North,360,0.0,0.0,47,0.00,,,0.00,Wunderground v.1.15,2013-02-25 03:00:00,
2013-02-24 22:05:00,44.8,27.3,30.04,North,360,0.0,0.0,50,0.00,,,0.00,Wunderground v.1.15,2013-02-25 03:05:00,
2013-02-24 22:10:00,44.5,28.0,30.04,WSW,252,0.0,0.0,52,0.00,,,0.00,Wunderground v.1.15,2013-02-25 03:10:00,
2013-02-24 22:15:00,44.3,26.3,30.04,West,266,0.0,0.0,49,0.00,,,0.00,Wunderground v.1.15,2013-02-25 03:15:00,
2013-02-24 22:20:00,44.4,26.4,30.04,West,265,0.0,0.0,49,0.00,,,0.00,Wunderground v.1.15,2013-02-25 03:20:00,
2013-02-24 22:25:00,44.6,26.1,30.04,WSW,247,0.0,0.0,48,0.00,,,0.00,Wunderground v.1.15,2013-02-25 03:25:00,
2013-02-24 22:30:00,44.7,26.7,30.04,WSW,247,0.0,0.0,49,0.00,,,0.00,Wunderground v.1.15,2013-02-25 03:30:00,
2013-02-24 22:35:00,44.6,27.1,30.05,WSW,247,0.0,0.0,50,0.00,,,0.00,Wunderground v.1.15,2013-02-25 03:35:00,
2013-02-24 22:40:00,44.2,27.2,30.05,WSW,247,0.0,0.0,51,0.00,,,0.00,Wunderground v.1.15,2013-02-25 03:40:00,
2013-02-24 22:45:00,43.8,27.3,30.05,WSW,247,0.0,0.0,52,0.00,,,0.00,Wunderground v.1.15,2013-02-25 03:45:00,
2013-02-24 22:50:00,43.3,28.2,30.05,WSW,247,0.0,0.0,55,0.00,,,0.00,Wunderground v.1.15,2013-02-25 03:50:00,
2013-02-24 23:00:00,42.4,27.4,30.05,WSW,247,0.0,0.0,55,0.00,,,0.00,Wunderground v.1.15,2013-02-25 04:00:00,
2013-02-24 23:05:00,42.0,27.9,30.05,WSW,247,0.0,0.0,57,0.00,,,0.00,Wunderground v.1.15,2013-02-25 04:05:00,
2013-02-24 23:10:00,41.5,27.0,30.05,WSW,247,0.0,0.0,56,0.00,,,0.00,Wunderground v.1.15,2013-02-25 04:10:00,
2013-02-24 23:15:00,41.1,26.6,30.04,WSW,247,0.0,0.0,56,0.00,,,0.00,Wunderground v.1.15,2013-02-25 04:15:00,
2013-02-24 23:20:00,40.6,27.4,30.05,WSW,247,0.0,0.0,59,0.00,,,0.00,Wunderground v.1.15,2013-02-25 04:20:00,
2013-02-24 23:25:00,40.4,27.6,30.05,WSW,247,0.0,0.0,60,0.00,,,0.00,Wunderground v.1.15,2013-02-25 04:25:00,
2013-02-24 23:30:00,39.9,27.1,30.05,WSW,247,0.0,0.0,60,0.00,,,0.00,Wunderground v.1.15,2013-02-25 04:30:00,
2013-02-24 23:35:00,39.5,26.3,30.05,WSW,247,0.0,0.0,59,0.00,,,0.00,Wunderground v.1.15,2013-02-25 04:35:00,
2013-02-24 23:40:00,39.4,27.5,30.06,WSW,247,0.0,0.0,62,0.00,,,0.00,Wunderground v.1.15,2013-02-25 04:40:00,
2013-02-24 23:45:00,39.2,26.9,30.06,WSW,247,0.0,0.0,61,0.00,,,0.00,Wunderground v.1.15,2013-02-25 04:45:00,
2013-02-24 23:50:00,39.2,26.5,30.06,WSW,247,0.0,0.0,60,0.00,,,0.00,Wunderground v.1.15,2013-02-25 04:50:00,
2013-02-24 23:55:00,39.4,27.8,30.06,North,9,0.0,0.0,63,0.00,,,0.00,Wunderground v.1.15,2013-02-25 04:55:00,